Szolnok, Hungary

5:38 PM CEST on May 28, 2017 (GMT +0200)
Szolnok

Weather History for LHSN - July, 2013

Change the Weather History Date:

Monday, July 29, 2013

  Actual Average (LHBP) Record (LHBP)
Temperature  
Mean Temperature 85 °F -  
Max Temperature 102 °F 80 °F 98 °F (2013)
Min Temperature 68 °F 59 °F 53 °F (2004)
Cooling Degree Days 20    
Growing Degree Days 35 (Base 50)    
Moisture  
Dew Point 59 °F    
Average Humidity 45    
Maximum Humidity 78    
Minimum Humidity 21    
Precipitation  
Precipitation 0.00 in - - ()
Sea Level Pressure  
Sea Level Pressure 29.91 in    
Wind  
Wind Speed 5 mph ()    
Max Wind Speed 13 mph    
Max Gust Speed 22 mph    
Visibility 1.9 miles    
Events Rain , Thunderstorm    
Averages and records for this station are not official NWS values.
T = Trace of Precipitation, MM = Missing Value Source: Averaged Metar Reports

Daily Weather History Graph

Daily Weather History Graph

Search for Another Location

Airport or City:

Trip Planner

Search our weather history database for the weather conditions in past years. The results will help you decide how hot, cold, wet, or windy it might be!

Date:

Astronomy

Jul. 29, 2013 Rise Set
Actual Time 5:14 AM CEST 8:15 PM CEST
Civil Twilight 4:38 AM CEST 8:51 PM CEST
Nautical Twilight 3:51 AM CEST 9:38 PM CEST
Astronomical Twilight 2:54 AM CEST 10:34 PM CEST
Moon 11:27 PM CEST (7/29) 1:12 PM CEST (7/29)
Length of Visible Light 16h 13m
Length of Day
15h 01m
Waning Gibbous, 53% of the Moon is Illuminated
Jul 29
Waning Gibbous
Jul 29
Last Quarter
Aug 6
New
Aug 14
First Quarter
Aug 21
Full

Hourly Weather History & Observations

Time (CEST) Temp. Heat Index Dew Point Humidity Pressure Visibility Wind Dir Wind Speed Gust Speed Precip Events Conditions
12:15 AM 75.2 °F - 60.8 °F 61% 29.98 in - SSE 2.2 mph - N/A   Clear
12:45 AM 73.4 °F - 60.8 °F 65% 29.98 in - SE 2.2 mph - N/A   Clear
1:15 AM 73.4 °F - 59.0 °F 61% 29.98 in - South 2.2 mph - N/A   Clear
1:45 AM 73.4 °F - 60.8 °F 65% 29.98 in - Calm Calm - N/A   Clear
2:15 AM 71.6 °F - 60.8 °F 69% 29.98 in - SSE 2.2 mph - N/A   Clear
2:45 AM 73.4 °F - 60.8 °F 65% 29.98 in - SSE 2.2 mph - N/A   Clear
3:15 AM 69.8 °F - 60.8 °F 73% 29.98 in - Calm Calm - N/A   Clear
3:45 AM - - - N/A% - - SSE 6.7 mph - N/A   Clear
4:15 AM 68.0 °F - 60.8 °F 78% 29.95 in - Calm Calm - N/A   Clear
4:45 AM 68.0 °F - 59.0 °F 73% 29.98 in - Calm Calm - N/A   Clear
5:15 AM 68.0 °F - 59.0 °F 73% 29.95 in - Calm Calm - N/A   Clear
5:45 AM 68.0 °F - 60.8 °F 78% 29.98 in - Variable 2.2 mph - N/A   Clear
6:15 AM 71.6 °F - 62.6 °F 73% 29.98 in - SSE 4.5 mph - N/A   Clear
6:45 AM - - - N/A% - - SSE 6.7 mph - N/A   Clear
7:15 AM 77.0 °F - 60.8 °F 57% 29.95 in - SSE 6.7 mph - N/A   Clear
7:45 AM 78.8 °F - 59.0 °F 51% 29.95 in - SSE 6.7 mph - N/A   Clear
8:15 AM 80.6 °F 81.5 °F 60.8 °F 51% 29.95 in - South 8.9 mph - N/A   Clear
8:45 AM 84.2 °F 84.4 °F 60.8 °F 45% 29.95 in - South 8.9 mph - N/A   Clear
9:15 AM 86.0 °F 86.1 °F 60.8 °F 43% 29.95 in - South 6.7 mph - N/A   Clear
9:45 AM - - - N/A% - - South 13.4 mph - N/A   Clear
10:15 AM 91.4 °F 91.4 °F 60.8 °F 36% 29.95 in - South 11.2 mph - N/A   Clear
10:45 AM 93.2 °F 92.6 °F 59.0 °F 32% 29.95 in - South 11.2 mph - N/A   Clear
11:15 AM 91.4 °F 91.4 °F 60.8 °F 36% 29.95 in - South 13.4 mph - N/A   Clear
11:45 AM 95.0 °F 93.7 °F 57.2 °F 28% 29.92 in - South 13.4 mph - N/A   Clear
12:15 PM 96.8 °F 95.1 °F 55.4 °F 25% 29.92 in - South 13.4 mph - N/A   Clear
12:45 PM - - - N/A% - - South 13.4 mph - N/A   Clear
1:15 PM 96.8 °F 95.1 °F 55.4 °F 25% 29.92 in - South 13.4 mph - N/A   Clear
1:45 PM 98.6 °F 97.6 °F 57.2 °F 25% 29.89 in - South 13.4 mph - N/A   Clear
2:15 PM 98.6 °F 98.5 °F 59.0 °F 27% 29.89 in - South 13.4 mph - N/A   Clear
2:45 PM 98.6 °F 98.5 °F 59.0 °F 27% 29.86 in - South 13.4 mph - N/A   Clear
3:15 PM 100.4 °F 100.2 °F 59.0 °F 25% 29.86 in - South 11.2 mph 22.4 mph N/A   Clear
3:45 PM - - - N/A% - - South 13.4 mph - N/A   Clear
4:15 PM 100.4 °F 98.4 °F 53.6 °F 21% 29.83 in - SW 11.2 mph - N/A   Clear
4:45 PM 102.2 °F 100.9 °F 55.4 °F 21% 29.83 in - SW 8.9 mph - N/A   Clear
5:15 PM 100.4 °F 98.4 °F 53.6 °F 21% 29.83 in - SW 8.9 mph - N/A   Clear
5:45 PM 98.6 °F 96.4 °F 53.6 °F 22% 29.83 in - SW 8.9 mph - N/A   Clear
6:15 PM 98.6 °F 96.4 °F 53.6 °F 22% 29.83 in - SW 6.7 mph - N/A   Clear
6:45 PM - - - N/A% - 1.9 mi SW 6.7 mph - N/A   Clear
7:15 PM 96.8 °F 95.8 °F 57.2 °F 27% 29.83 in - WSW 4.5 mph - N/A   Clear
7:45 PM 93.2 °F 92.6 °F 59.0 °F 32% 29.83 in - SW 4.5 mph - N/A   Clear
8:15 PM 89.6 °F 89.5 °F 60.8 °F 38% 29.83 in - SW 4.5 mph - N/A   Clear
8:45 PM 89.6 °F 88.9 °F 59.0 °F 36% 29.83 in - SW 4.5 mph - N/A   Clear
9:15 PM 86.0 °F 86.1 °F 60.8 °F 43% 29.83 in - SSW 2.2 mph - N/A   Clear
9:45 PM - - - N/A% - 1.9 mi SSW 4.5 mph - N/A Rain , Thunderstorm Rain Showers
10:15 PM 84.2 °F 84.4 °F 60.8 °F 45% 29.83 in - SW 4.5 mph - N/A   Clear
10:45 PM 82.4 °F 82.9 °F 60.8 °F 48% 29.83 in - SW 4.5 mph - N/A   Clear
11:15 PM 82.4 °F 82.9 °F 60.8 °F 48% 29.83 in - SW 4.5 mph - N/A   Clear
11:45 PM 84.2 °F 84.4 °F 60.8 °F 45% 29.86 in - WSW 6.7 mph - N/A   Clear